Regional Weather Roundup
Issued by NWS

Home | Current Version | Previous Version | Graphics & Text | Print | Product List | Glossary On
Versions: 1 2 3 4 5 6 7 8 9 10 11 12 13 14 15 16 17 18 19 20 21 22 23 24 25 26 27 28 29 30 31 32 33 34 35 36 37 38 39 40 41 42 43 44 45 46 47 48 49 50
000
ASUS45 KTFX 220210
RWRMT
MONTANA REGIONAL WEATHER ROUNDUP
NATIONAL WEATHER SERVICE GREAT FALLS MT
700 PM MST TUE NOV 21 2017

NOTE: "FAIR" INDICATES FEW OR NO CLOUDS BELOW 12000 FEET WITH NO
SIGNIFICANT WEATHER AND/OR OBSTRUCTIONS TO VISIBILITY.

MTZ001>007-043-220300-
WEST OF THE DIVIDE

CITY           SKY/WX    TMP DP  RH WIND       PRES   REMARKS
KALISPELL      LGT RAIN  38  38 100 W3        30.12F
MISSOULA       CLOUDY    36  35  96 CALM      30.19F
BUTTE          MOCLDY    36  29  75 SE5       30.20S
MULLAN PASS    LGT RAIN  35  34  96 S8        30.10F VSB 1/4 WCI  29
ANACONDA         N/A     43  36  75 S8        30.16S
DEER LODGE       N/A     36  30  80 CALM      30.19S
EUREKA           N/A     39  36  87 MISG      30.07F
HAMILTON         N/A     37  36  93 CALM      30.19F
LIBBY            N/A     36  36 100 CALM      30.08F
PLAINS           N/A     37  34  89 MISG      30.13
RONAN            N/A     39  36  89 CALM      30.16
THOMPSON FALLS   N/A     38  37  96 E8        30.16
$$

MTZ008-052>055-220300-
SOUTHWEST MONTANA

CITY           SKY/WX    TMP DP  RH WIND       PRES   REMARKS
BOZEMAN        CLOUDY    34  31  88 NW5       30.20R
DILLON         MOCLDY    40  34  79 SW10      30.21F
W YELLOWSTONE    N/A     34  34 100 VRB5      30.34R
ENNIS          CLOUDY    39  36  87 S17G23    30.27S WCI  30
TWIN BRIDGES     N/A     41  32  70 CALM      30.18R
$$

MTZ009-010-012-014-046-048-049-054-220300-
EAST SLOPES AND CENTRAL MONTANA

CITY           SKY/WX    TMP DP  RH WIND       PRES   REMARKS
CUT BANK       FAIR      26  24  92 SE10      29.97F WCI  16
GREAT FALLS    FAIR      48  31  51 SW20G31   30.03F
MALMSTROM AFB  CLOUDY    42  36  80 S14       30.04F
HELENA         FAIR      36  32  85 CALM      30.14F
BOWMANS CRNR   MOCLDY    41  31  68 S22G28    30.03F
CHOTEAU          N/A     50  34  53 SW13      30.01F
FAIRFIELD      MOCLDY    44  33  64 SW23      29.99F
POWER          MOCLDY    44  31  60 SW6       30.02F
RAYNESFORD     LGT RAIN  46  36  66 SW9       30.05F
ULM            CLOUDY    47  34  61 S15       30.04F
$$

MTZ011-013-016-021-045-047-050-051-220300-
NORTH CENTRAL MONTANA

CITY           SKY/WX    TMP DP  RH WIND       PRES   REMARKS
HAVRE          FAIR      25  14  63 E8        30.05F WCI  16
LEWISTOWN      CLOUDY    42  30  62 SW17      30.07R
N BAR RANCH    FAIR      34  28  80 CALM      30.08F
CHINOOK          N/A     21  10  63 E9        30.07F WCI  11
DENTON         MOCLDY    31  28  90 S10       30.02F WCI  22
GEYSER         LGT RAIN  39  34  84 W13       30.04F WCI  31
GRASS RANGE    MOCLDY    35  29  76 S5        30.02F
STANFORD       LGT RAIN  47  36  65 W23       30.05F
WINIFRED       CLOUDY    29  26  88 SW3       30.04F
$$

MTZ017>020-022>027-061-062-220300-
NORTHEAST MONTANA

CITY           SKY/WX    TMP DP  RH WIND       PRES   REMARKS
GLASGOW        FAIR      15   2  56 E14       30.13F WCI   0
GLENDIVE       FAIR      17   8  67 CALM      30.20F
JORDAN           N/A     25  20  81 SE5       30.12F
SIDNEY         CLOUDY    17   5  59 S5        30.23F
WOLF POINT     FAIR      17   3  54 E3        30.19F
MALTA          PTCLDY    18  10  73 NE9       30.12F WCI   6
PLENTYWOOD       N/A     16   1  53 S10       30.18F WCI   3
POPLAR           N/A     18   1  49 E5        30.20F
SCOBEY           N/A     16  -6  37 SE1       30.11
$$

MTZ028>42-056>058-220300-
SOUTHCENTRAL AND SOUTHEAST MONTANA

CITY           SKY/WX    TMP DP  RH WIND       PRES   REMARKS
BAKER          FAIR      17  14  88 SE5       30.20F
BILLINGS       MOCLDY    36  33  89 SW6       30.12F WCI  31
LIVINGSTON     CLOUDY    47  37  68 SW36G49   30.12F
MILES CITY     FAIR      23  17  78 NE5       30.16F
BIG TIMBER     CLOUDY    45  34  65 W24       30.14F
EKALAKA          N/A     29  19  66 SE5       30.12
FORSYTH          N/A     27  25  93 CALM      30.16S
HARLOWTON      CLOUDY    42  32  65 NW17      30.10R
LAUREL           N/A     43  30  61 W12       30.14S
ROUNDUP          N/A     35  28  76 S3        30.00F
$$

REGIONAL REPORTS...DAKOTAS

CITY           SKY/WX    TMP DP  RH WIND       PRES   REMARKS
WILLISTON      CLOUDY    14   4  64 SE5       30.25F
MINOT          FAIR       8   2  76 SW6       30.28F WCI  -2
DICKINSON      FAIR      12   1  61 S3        30.21F
BEACH          FAIR      12   7  79 S5        30.23F
CROSBY         CLOUDY     7   1  78 SE5       30.23F
TIOGA          FAIR       5   0  78 S7        30.23F WCI  -7
WATFORD CITY   FAIR      10   1  67 SE8       30.24F WCI  -1
BISMARCK       FAIR      12   6  77 CALM      30.33F
GRAND FORKS    MOCLDY    16  11  80 W9        30.32S WCI   4
FARGO          FAIR      16  10  77 W7        30.34F WCI   6
BUFFALO SD       N/A     24   9  52 E6        30.14F WCI  17
RAPID CITY     FAIR      22  16  78 SW5       30.24F
$$

REGIONAL REPORTS...WYOMING/IDAHO/WASHINGTON

CITY           SKY/WX    TMP DP  RH WIND       PRES   REMARKS
GILLETTE       FAIR      37  26  64 S10       30.15F WCI  30
SHERIDAN       FAIR      32  31  96 CALM      30.14R
BUFFALO WY     FAIR      36  25  64 S8        30.15S WCI  30
CODY           MOCLDY    39  31  72 N6        30.19S
YELLOWSTONE LA   N/A     32  32 100 CALM      30.37S
IDAHO FALLS    CLOUDY    39  39 100 VRB5      30.36S
SALMON         LGT RAIN  37  35  92 CALM      30.30R
BOISE          CLOUDY    53  49  86 SE10      30.25R
SPOKANE        LGT RAIN  40  40 100 E3        30.05F VSB 1/2
$$

REGIONAL REPORTS...ALBERTA

CITY           SKY/WX    TMP DP  RH WIND       PRES   REMARKS
EDMONTON       CLEAR      9   1  72 SE8       29.93F WCI  -4
CALGARY        CLOUDY    16  10  79 S12       29.80F WCI   3
LETHBRIDGE     CLOUDY    25  21  86 VRB2      29.88F
MEDICINE HAT   CLOUDY    18  12  79 NE3       29.98F
$$

REGIONAL REPORTS...SASKATCHEWAN

CITY           SKY/WX    TMP DP  RH WIND       PRES   REMARKS
SWIFT CURRENT  CLEAR     10   3  72 S17       30.01F WCI  -7
REGINA         MOCLDY     0  -6  78 SE10      30.18F WCI -17
SASKATOON      PTCLDY    -6  -9  84 SW7       30.18F WCI -20
$$



USA.gov is the U.S. government's official web portal to all federal, state and local government web resources and services.